Regional Weather Roundup
Issued by NWS

Home | Current Version | Previous Version | Text Only | Print | Product List | Glossary On
Versions: 1 2 3 4 5 6 7 8 9 10 11 12 13 14 15 16 17 18 19 20 21 22 23 24 25 26 27
000
ASUS45 KSLC 031910
RWRUT

UTAH REGIONAL WEATHER ROUNDUP
NATIONAL WEATHER SERVICE SALT LAKE CITY UT
100 PM MDT TUE MAY 03 2016

UTZ001>011-023>025-032000-

NORTHERN UTAH

CITY           SKY/WX    TMP DP  RH WIND       PRES   REMARKS
BRIGHAM CITY   SUNNY     65  35  32 NE3       30.25S
HILL AFB       SUNNY     65  35  33 NW8       30.24F
LOGAN          SUNNY     64  36  35 NW5       30.24F
OGDEN          SUNNY     66  36  32 MISG      30.23F
PROVO AIRPORT  MOSUNNY   63  36  36 VRB5      30.24F
SALT LAKE CITY MOSUNNY   68  35  29 N12       30.23F
VERNAL         SUNNY     64  26  23 NW5       30.26F
WENDOVER       SUNNY     64  36  34 E7        30.25F
HEBER CITY     SUNNY     64  18  16 CALM      30.23F

$$

UTZ012>022-026-027-032000-

SOUTHERN/CENTRAL UTAH

CITY           SKY/WX    TMP DP  RH WIND       PRES   REMARKS
BLANDING       SUNNY     65  25  21 NE12G24   30.29F
BRYCE CANYON   SUNNY     56  26  31 SE10      30.32S
CEDAR CITY     SUNNY     63  35  35 N6        30.21F
DELTA          SUNNY     68  28  22 E6        30.23F
HANKSVILLE     SUNNY     68  32  26 N3        30.24S
MILFORD        SUNNY     67  31  26 VRB6      30.21F
MOAB/CYNLANDS  SUNNY     71  25  17 E7        30.18F
PRICE          SUNNY     65  25  22 SW7       30.25F
ST GEORGE      CLEAR     72  39  30 NW3       30.14F
KANAB          SUNNY     70  34  26 NE13G22   30.24F

$$

REGIONAL REPORTS     COLORADO/ARIZONA

CITY           SKY/WX    TMP DP  RH WIND       PRES   REMARKS
CRAIG, CO      SUNNY     61  29  29 SW6       30.27F
GRAND JUNCTION SUNNY     66  29  24 W3        30.20F
RIFLE          SUNNY     64  23  21 MISG      30.22F
MONTROSE       SUNNY     63  26  24 NW8       30.25F
CORTEZ         SUNNY     64  38  38 SW16      30.21F
PAGE, AZ       SUNNY     68  36  30 VRB6      30.20F
GRAND CANYON   SUNNY     61  33  35 E12G20    30.26F
KINGMAN        SUNNY     78  31  17 VRB7      30.08F
FLAGSTAFF      MOSUNNY   57  35  43 E13G20    30.26F

$$

REGIONAL REPORTS    NEVADA/IDAHO/WYOMING

CITY           SKY/WX    TMP DP  RH WIND       PRES   REMARKS
LAS VEGAS, NV  SUNNY     79  34  19 N12       30.04F
ELY            SUNNY     61  28  28 VRB3      30.26F
ELKO           MOSUNNY   66  32  28 SE7       30.21F
POCATELLO, ID  SUNNY     69  36  29 N8        30.23F
BURLEY         SUNNY     69  36  29 E6        30.20F
EVANSTON, WY   SUNNY     61  19  19 E8        30.31F
ROCK SPRINGS   SUNNY     59  20  22 VRB5      30.30F
KEMMERER         N/A     61  14  16 W3        30.32F

$$




USA.gov is the U.S. government's official web portal to all federal, state and local government web resources and services.